Volver al catálogo

STARLINK-38091

ActivoComunicacionesSSO
NORAD 69997·PAYLOAD·🇺🇸 United States

Lanzado Jul 11, 2026 desde Vandenberg Space Force Base

Loading…

Próximos Pases (próximas 24 horas)

TLE

ActualizadoSource: CelesTrak SupGP

Época: Sep 14, 2026, 15:01 UTC

1 69997C 26159Y   26257.62618056 -.02657100  00000+0 -32393-1 0  2579
2 69997  97.2844  99.4750 0001510  79.8075 268.1001 15.61866861    10

Sigue STARLINK-38091 en tiempo real con AllMySat

Download on the App Store